KB7STN Weather Reports


time (UTC)temp
C
wind
direction
speed
KPH
gust
KPH
rain 1hr
cm
rain 24hr
cm
rain mn
cm
humidity
%
barometer
mb
20260906181511 27 198 3.2 14.5 0.00 0.00 0.00 28 1016.8
20260906181011 27 215 3.2 9.7 0.00 0.00 0.00 28 1016.8
20260906180511 27 178 3.2 9.7 0.00 0.00 0.00 28 1016.8
20260906180011 27 209 3.2 12.9 0.00 0.00 0.00 29 1016.9
20260906175511 26 216 1.6 8.0 0.00 0.00 0.00 29 1016.9
20260906175011 26 246 1.6 11.3 0.00 0.00 0.00 29 1017.0
20260906174511 26 219 3.2 14.5 0.00 0.00 0.00 28 1017.1
20260906174011 26 215 3.2 16.1 0.00 0.00 0.00 29 1017.0
20260906173511 26 161 1.6 12.9 0.00 0.00 0.00 28 1017.2
20260906173011 26 216 1.6 9.7 0.00 0.00 0.00 30 1017.4
20260906172511 26 163 1.6 8.0 0.00 0.00 0.00 31 1017.6
20260906172011 26 139 1.6 12.9 0.00 0.00 0.00 29 1017.6
20260906171511 25 274 1.6 11.3 0.00 0.00 0.00 30 1017.5
20260906171011 25 199 1.6 6.4 0.00 0.00 0.00 31 1017.6
20260906170511 25 188 3.2 0.0 0.00 0.00 0.00 31 1017.6
20260906170011 25 182 3.2 9.7 0.00 0.00 0.00 31 1017.7
20260906165511 25 219 3.2 12.9 0.00 0.00 0.00 31 1017.7
20260906165011 25 164 4.8 12.9 0.00 0.00 0.00 31 1017.8
20260906164511 24 197 4.8 14.5 0.00 0.00 0.00 32 1017.9
20260906164011 24 217 4.8 19.3 0.00 0.00 0.00 31 1018.0
20260906163511 24 183 6.4 16.1 0.00 0.00 0.00 31 1018.1
20260906163011 24 213 6.4 16.1 0.00 0.00 0.00 31 1018.1
20260906162511 24 174 4.8 24.1 0.00 0.00 0.00 30 1018.1
20260906162011 24 196 3.2 11.3 0.00 0.00 0.00 31 1018.2
20260906161511 24 183 3.2 19.3 0.00 0.00 0.00 32 1018.3
20260906161011 24 229 3.2 9.7 0.00 0.00 0.00 32 1018.3
20260906160511 24 240 3.2 9.7 0.00 0.00 0.00 32 1018.3
20260906160011 24 240 1.6 12.9 0.00 0.00 0.00 31 1018.4
20260906155511 24 254 0.0 8.0 0.00 0.00 0.00 32 1018.5
20260906155011 24 254 1.6 3.2 0.00 0.00 0.00 33 1018.7
20260906154511 23 254 3.2 9.7 0.00 0.00 0.00 33 1018.7
20260906154011 23 254 1.6 9.7 0.00 0.00 0.00 32 1018.7
20260906153511 23 255 0.0 8.0 0.00 0.00 0.00 32 1018.8
20260906153011 23 255 0.0 4.8 0.00 0.00 0.00 32 1018.7
20260906152511 23 255 0.0 6.4 0.00 0.00 0.00 32 1018.8
20260906152011 23 255 0.0 6.4 0.00 0.00 0.00 31 1018.8
20260906151511 23 256 0.0 4.8 0.00 0.00 0.00 32 1018.8
20260906151011 23 256 0.0 4.8 0.00 0.00 0.00 31 1018.9
20260906150511 23 256 0.0 6.4 0.00 0.00 0.00 32 1019.0
20260906150011 23 256 0.0 8.0 0.00 0.00 0.00 32 1019.0
20260906145511 22 256 0.0 3.2 0.00 0.00 0.00 32 1019.1
20260906145011 22 256 0.0 3.2 0.00 0.00 0.00 32 1019.0
20260906144511 22 256 0.0 3.2 0.00 0.00 0.00 33 1019.0
20260906144011 22 256 0.0 1.6 0.00 0.00 0.00 32 1019.0
20260906143511 22 256 0.0 4.8 0.00 0.00 0.00 32 1019.0
20260906143011 22 256 0.0 4.8 0.00 0.00 0.00 33 1019.0
20260906142511 22 256 0.0 4.8 0.00 0.00 0.00 33 1019.0
20260906142011 22 256 0.0 4.8 0.00 0.00 0.00 33 1019.0
20260906141511 22 256 0.0 4.8 0.00 0.00 0.00 32 1018.9
20260906141011 22 256 0.0 4.8 0.00 0.00 0.00 33 1018.8
20260906140511 22 257 0.0 4.8 0.00 0.00 0.00 33 1018.9
20260906140011 22 257 0.0 0.0 0.00 0.00 0.00 33 1018.8
20260906135511 22 256 0.0 6.4 0.00 0.00 0.00 33 1018.7
20260906135011 21 257 0.0 6.4 0.00 0.00 0.00 33 1018.7
20260906134511 21 257 0.0 3.2 0.00 0.00 0.00 33 1018.6
20260906134011 21 257 0.0 3.2 0.00 0.00 0.00 34 1018.6
20260906133511 21 257 0.0 1.6 0.00 0.00 0.00 34 1018.5
20260906133011 20 257 0.0 6.4 0.00 0.00 0.00 34 1018.6
20260906132511 20 257 0.0 3.2 0.00 0.00 0.00 34 1018.5
20260906132011 20 257 0.0 11.3 0.00 0.00 0.00 34 1018.4
20260906131511 20 257 0.0 4.8 0.00 0.00 0.00 34 1018.3
20260906131011 20 257 0.0 3.2 0.00 0.00 0.00 34 1018.3
20260906130511 20 257 0.0 3.2 0.00 0.00 0.00 34 1018.2
20260906130011 20 257 0.0 11.3 0.00 0.00 0.00 33 1018.2
20260906125511 20 257 0.0 1.6 0.00 0.00 0.00 33 1018.2
20260906125011 20 257 1.6 4.8 0.00 0.00 0.00 33 1018.2
20260906124511 20 257 1.6 9.7 0.00 0.00 0.00 32 1018.3
20260906124011 20 258 1.6 4.8 0.00 0.00 0.00 33 1018.2
20260906123511 20 258 0.0 6.4 0.00 0.00 0.00 33 1018.2
20260906123011 20 258 0.0 3.2 0.00 0.00 0.00 33 1018.3
20260906122511 20 258 0.0 4.8 0.00 0.00 0.00 33 1018.3
20260906122011 20 258 0.0 6.4 0.00 0.00 0.00 33 1018.2
20260906121511 20 258 0.0 8.0 0.00 0.00 0.00 32 1018.3
20260906121011 20 258 0.0 3.2 0.00 0.00 0.00 33 1018.3
20260906120511 20 258 0.0 8.0 0.00 0.00 0.00 32 1018.3
20260906120011 20 258 0.0 6.4 0.00 0.00 0.00 32 1018.2
20260906115511 20 258 0.0 3.2 0.00 0.00 0.00 33 1018.2
20260906115011 20 258 1.6 6.4 0.00 0.00 0.00 31 1018.3
20260906114511 20 259 1.6 6.4 0.00 0.00 0.00 31 1018.2
20260906114011 20 259 1.6 6.4 0.00 0.00 0.00 31 1018.2
20260906113511 20 259 0.0 4.8 0.00 0.00 0.00 31 1018.2
20260906113011 20 259 0.0 0.0 0.00 0.00 0.00 31 1018.2
20260906112511 20 259 0.0 4.8 0.00 0.00 0.00 30 1018.3
20260906112011 20 259 0.0 0.0 0.00 0.00 0.00 30 1018.3
20260906111511 20 259 0.0 3.2 0.00 0.00 0.00 30 1018.3
20260906111011 20 259 0.0 6.4 0.00 0.00 0.00 30 1018.3
20260906110511 20 259 0.0 0.0 0.00 0.00 0.00 30 1018.4
20260906110011 20 259 0.0 8.0 0.00 0.00 0.00 30 1018.3
20260906105511 20 259 0.0 3.2 0.00 0.00 0.00 30 1018.4
20260906105011 20 259 0.0 3.2 0.00 0.00 0.00 29 1018.4
20260906104511 20 259 0.0 1.6 0.00 0.00 0.00 29 1018.4
20260906104011 20 259 0.0 4.8 0.00 0.00 0.00 28 1018.3
20260906103511 20 259 0.0 4.8 0.00 0.00 0.00 29 1018.3
20260906103011 20 259 0.0 0.0 0.00 0.00 0.00 28 1018.3
20260906102511 20 259 0.0 3.2 0.00 0.00 0.00 28 1018.3
20260906102011 20 259 0.0 8.0 0.00 0.00 0.00 28 1018.2
20260906101511 20 259 1.6 3.2 0.00 0.00 0.00 28 1018.2
20260906101011 20 259 1.6 11.3 0.00 0.00 0.00 28 1018.2
20260906100511 20 259 0.0 3.2 0.00 0.00 0.00 28 1018.1
20260906100012 20 259 0.0 3.2 0.00 0.00 0.00 28 1018.0
20260906095511 20 259 0.0 4.8 0.00 0.00 0.00 27 1018.0
20260906095011 20 259 1.6 11.3 0.00 0.00 0.00 27 1018.0
20260906094511 20 259 1.6 8.0 0.00 0.00 0.00 27 1018.0
20260906094011 20 259 1.6 8.0 0.00 0.00 0.00 27 1018.0
20260906093511 20 259 1.6 4.8 0.00 0.00 0.00 28 1018.0
20260906093011 20 259 1.6 8.0 0.00 0.00 0.00 28 1018.0
20260906092511 21 259 0.0 8.0 0.00 0.00 0.00 28 1018.1
20260906092011 21 259 1.6 4.8 0.00 0.00 0.00 27 1018.0
20260906091511 21 259 1.6 11.3 0.00 0.00 0.00 27 1017.9
20260906091011 21 260 1.6 6.4 0.00 0.00 0.00 27 1017.9
20260906090511 21 261 1.6 6.4 0.00 0.00 0.00 27 1017.9
20260906090011 21 261 1.6 3.2 0.00 0.00 0.00 27 1017.9
20260906085511 21 261 1.6 4.8 0.00 0.00 0.00 27 1018.0
20260906085011 21 261 1.6 6.4 0.00 0.00 0.00 27 1018.0
20260906084511 21 261 1.6 6.4 0.00 0.00 0.00 27 1018.0
20260906084011 21 261 1.6 8.0 0.00 0.00 0.00 27 1017.9
20260906083511 21 261 1.6 6.4 0.00 0.00 0.00 27 1017.9
20260906083012 21 261 1.6 6.4 0.00 0.00 0.00 26 1017.9
20260906082512 21 261 1.6 8.0 0.00 0.00 0.00 26 1018.0
20260906082012 21 261 0.0 3.2 0.00 0.00 0.00 26 1018.0
20260906081512 21 261 0.0 6.4 0.00 0.00 0.00 25 1017.9
20260906081012 21 261 0.0 4.8 0.00 0.00 0.00 25 1018.0
20260906080512 21 261 1.6 4.8 0.00 0.00 0.00 25 1018.0
20260906080012 21 261 1.6 8.0 0.00 0.00 0.00 25 1018.0
20260906075512 21 261 1.6 6.4 0.00 0.00 0.00 25 1018.1
20260906075012 21 261 1.6 4.8 0.00 0.00 0.00 25 1018.1
20260906074512 21 261 0.0 3.2 0.00 0.00 0.00 24 1017.9
20260906074012 21 261 1.6 0.0 0.00 0.00 0.00 24 1018.0
20260906073512 21 261 1.6 6.4 0.00 0.00 0.00 24 1018.0
20260906073012 21 261 1.6 6.4 0.00 0.00 0.00 24 1018.0
20260906072512 21 261 0.0 4.8 0.00 0.00 0.00 23 1018.0
20260906072012 21 262 0.0 6.4 0.00 0.00 0.00 23 1018.0
20260906071512 22 262 0.0 6.4 0.00 0.00 0.00 23 1018.0
20260906071012 22 261 1.6 4.8 0.00 0.00 0.00 22 1018.0
20260906070512 22 262 1.6 6.4 0.00 0.00 0.00 22 1018.0
20260906070012 22 262 1.6 8.0 0.00 0.00 0.00 22 1018.0
20260906065512 22 262 1.6 6.4 0.00 0.00 0.00 22 1018.0
20260906065012 22 263 1.6 12.9 0.00 0.00 0.00 22 1018.0
20260906064512 22 261 1.6 8.0 0.00 0.00 0.00 22 1017.9
20260906064012 22 261 1.6 6.4 0.00 0.00 0.00 23 1017.9
20260906063512 22 261 1.6 4.8 0.00 0.00 0.00 23 1018.0
20260906063012 22 261 1.6 6.4 0.00 0.00 0.00 23 1017.9
20260906062512 22 261 1.6 6.4 0.00 0.00 0.00 23 1017.9
20260906062012 22 261 1.6 4.8 0.00 0.00 0.00 23 1017.9
20260906061512 22 261 3.2 6.4 0.00 0.00 0.00 23 1017.7
20260906061012 23 261 1.6 8.0 0.00 0.00 0.00 22 1017.8
20260906060512 23 261 1.6 6.4 0.00 0.00 0.00 22 1017.8
20260906060012 23 262 1.6 8.0 0.00 0.00 0.00 22 1017.7
20260906055512 23 262 1.6 8.0 0.00 0.00 0.00 22 1017.7
20260906055012 23 262 0.0 6.4 0.00 0.00 0.00 21 1017.6
20260906054512 23 263 0.0 1.6 0.00 0.00 0.00 21 1017.6
20260906054012 23 263 0.0 6.4 0.00 0.00 0.00 21 1017.6
20260906053512 23 263 0.0 4.8 0.00 0.00 0.00 20 1017.5
20260906053012 23 263 0.0 3.2 0.00 0.00 0.00 20 1017.5
20260906052512 23 263 1.6 11.3 0.00 0.00 0.00 19 1017.5
20260906052012 23 261 1.6 9.7 0.00 0.00 0.00 19 1017.4
20260906051512 23 262 1.6 12.9 0.00 0.00 0.00 19 1017.5
20260906051012 23 265 0.0 3.2 0.00 0.00 0.00 19 1017.5
20260906050512 23 265 1.6 6.4 0.00 0.00 0.00 19 1017.5
20260906050012 23 265 1.6 6.4 0.00 0.00 0.00 19 1017.4
20260906045512 23 265 0.0 9.7 0.00 0.00 0.00 19 1017.4
20260906045012 23 267 0.0 6.4 0.00 0.00 0.00 19 1017.4
20260906044512 23 267 1.6 6.4 0.00 0.00 0.00 19 1017.3
20260906044012 23 267 1.6 6.4 0.00 0.00 0.00 19 1017.4
20260906043512 23 267 1.6 8.0 0.00 0.00 0.00 19 1017.4
20260906043012 23 267 1.6 8.0 0.00 0.00 0.00 19 1017.4
20260906042512 23 267 0.0 6.4 0.00 0.00 0.00 19 1017.4
20260906042012 23 267 0.0 0.0 0.00 0.00 0.00 19 1017.3
20260906041512 23 267 0.0 0.0 0.00 0.00 0.00 19 1017.3
20260906041012 23 267 0.0 8.0 0.00 0.00 0.00 18 1017.2
20260906040512 23 267 0.0 0.0 0.00 0.00 0.00 18 1017.1
20260906040012 23 267 0.0 3.2 0.00 0.00 0.00 19 1017.2
20260906035512 23 267 0.0 6.4 0.00 0.00 0.00 19 1017.3
20260906035012 23 267 0.0 0.0 0.00 0.00 0.00 19 1017.1
20260906034512 23 267 0.0 0.0 0.00 0.00 0.00 19 1017.1
20260906034012 23 267 0.0 0.0 0.00 0.00 0.00 18 1017.1
20260906033512 23 267 0.0 0.0 0.00 0.00 0.00 19 1017.1
20260906033012 23 267 0.0 4.8 0.00 0.00 0.00 19 1017.0
20260906032512 23 267 0.0 0.0 0.00 0.00 0.00 19 1016.9
20260906032012 24 267 0.0 0.0 0.00 0.00 0.00 19 1016.8
20260906031512 24 267 0.0 0.0 0.00 0.00 0.00 18 1016.7
20260906031012 24 267 0.0 6.4 0.00 0.00 0.00 18 1016.8
20260906030512 24 267 0.0 4.8 0.00 0.00 0.00 18 1016.7
20260906030012 24 267 0.0 3.2 0.00 0.00 0.00 18 1016.7
20260906025512 25 267 0.0 0.0 0.00 0.00 0.00 18 1016.6
20260906025012 25 267 0.0 0.0 0.00 0.00 0.00 18 1016.5
20260906024512 25 267 0.0 0.0 0.00 0.00 0.00 18 1016.5
20260906024012 25 267 0.0 6.4 0.00 0.00 0.00 17 1016.3
20260906023512 25 267 0.0 1.6 0.00 0.00 0.00 17 1016.2
20260906023012 25 267 0.0 11.3 0.00 0.00 0.00 17 1016.2
20260906022512 25 266 0.0 0.0 0.00 0.00 0.00 18 1016.1
20260906022012 25 266 0.0 0.0 0.00 0.00 0.00 18 1016.1
20260906021512 25 266 0.0 6.4 0.00 0.00 0.00 18 1016.1
20260906021012 26 267 0.0 0.0 0.00 0.00 0.00 18 1016.0
20260906020512 26 267 0.0 0.0 0.00 0.00 0.00 18 1016.1
20260906020012 26 265 0.0 4.8 0.00 0.00 0.00 18 1015.9
20260906015512 26 265 1.6 4.8 0.00 0.00 0.00 18 1015.8
20260906015012 26 265 0.0 8.0 0.00 0.00 0.00 18 1016.0
20260906014512 26 265 1.6 6.4 0.00 0.00 0.00 18 1015.9
20260906014012 26 269 1.6 14.5 0.00 0.00 0.00 17 1016.0
20260906013512 26 291 1.6 11.3 0.00 0.00 0.00 16 1016.0
20260906013012 27 263 1.6 9.7 0.00 0.00 0.00 17 1016.0
20260906012512 27 263 0.0 8.0 0.00 0.00 0.00 17 1016.1
20260906012012 27 262 1.6 6.4 0.00 0.00 0.00 16 1016.0
20260906011512 27 263 1.6 12.9 0.00 0.00 0.00 16 1016.0
20260906011012 27 259 1.6 9.7 0.00 0.00 0.00 16 1016.0
20260906010512 27 249 1.6 4.8 0.00 0.00 0.00 16 1016.1
20260906010012 27 252 0.0 12.9 0.00 0.00 0.00 16 1015.9
20260906005512 27 244 1.6 6.4 0.00 0.00 0.00 16 1016.0
20260906005012 27 243 1.6 9.7 0.00 0.00 0.00 16 1015.9
20260906004512 27 248 1.6 3.2 0.00 0.00 0.00 17 1016.1
20260906004012 27 246 1.6 11.3 0.00 0.00 0.00 16 1015.9
20260906003512 27 212 1.6 9.7 0.00 0.00 0.00 16 1016.0
20260906003012 27 211 0.0 6.4 0.00 0.00 0.00 17 1016.0
20260906002512 28 211 0.0 6.4 0.00 0.00 0.00 17 1016.0
20260906002012 28 209 0.0 8.0 0.00 0.00 0.00 17 1016.0
20260906001512 28 209 0.0 11.3 0.00 0.00 0.00 17 1016.0
20260906001012 28 209 0.0 9.7 0.00 0.00 0.00 17 1016.0
20260906000512 28 213 0.0 6.4 0.00 0.00 0.00 16 1015.9
20260906000012 28 212 0.0 4.8 0.00 0.00 0.00 17 1016.0
20260905235512 28 211 1.6 6.4 0.00 0.00 0.00 17 1016.0
20260905235012 28 207 1.6 9.7 0.00 0.00 0.00 16 1016.0
20260905234512 28 229 1.6 8.0 0.00 0.00 0.00 15 1016.0
20260905234012 28 229 3.2 14.5 0.00 0.00 0.00 15 1016.2
20260905233512 29 233 1.6 8.0 0.00 0.00 0.00 15 1016.1
20260905233012 29 233 1.6 8.0 0.00 0.00 0.00 15 1016.1
20260905232512 29 221 1.6 6.4 0.00 0.00 0.00 15 1016.1
20260905232012 29 225 1.6 9.7 0.00 0.00 0.00 15 1016.3
20260905231512 29 224 1.6 9.7 0.00 0.00 0.00 15 1016.2
20260905231012 29 221 1.6 11.3 0.00 0.00 0.00 15 1016.3
20260905230512 29 219 3.2 11.3 0.00 0.00 0.00 15 1016.4
20260905230012 29 253 3.2 12.9 0.00 0.00 0.00 15 1016.4
20260905225512 29 252 3.2 9.7 0.00 0.00 0.00 14 1016.6
20260905225012 29 247 3.2 9.7 0.00 0.00 0.00 16 1016.4
20260905224512 29 246 3.2 6.4 0.00 0.00 0.00 15 1016.6
20260905224012 29 244 3.2 11.3 0.00 0.00 0.00 14 1016.5
20260905223512 29 253 1.6 9.7 0.00 0.00 0.00 15 1016.7
20260905223012 29 263 3.2 8.0 0.00 0.00 0.00 14 1016.7
20260905222512 29 271 3.2 11.3 0.00 0.00 0.00 14 1016.7
20260905222012 29 211 3.2 11.3 0.00 0.00 0.00 14 1016.9
20260905221512 28 198 4.8 11.3 0.00 0.00 0.00 15 1016.7
20260905221012 28 207 3.2 14.5 0.00 0.00 0.00 14 1016.7
20260905220513 28 262 3.2 14.5 0.00 0.00 0.00 14 1016.9
20260905220012 28 208 3.2 11.3 0.00 0.00 0.00 15 1016.9
20260905215512 28 147 3.2 11.3 0.00 0.00 0.00 14 1017.0
20260905215013 28 238 3.2 12.9 0.00 0.00 0.00 15 1017.0
20260905214513 28 284 3.2 12.9 0.00 0.00 0.00 14 1017.0
20260905214012 29 192 3.2 11.3 0.00 0.00 0.00 14 1017.1
20260905213513 29 218 3.2 11.3 0.00 0.00 0.00 13 1017.2
20260905213013 29 225 1.6 11.3 0.00 0.00 0.00 13 1017.4
20260905212513 29 205 4.8 8.0 0.00 0.00 0.00 13 1017.5
20260905212013 29 218 3.2 14.5 0.00 0.00 0.00 13 1017.0
20260905211513 29 245 1.6 11.3 0.00 0.00 0.00 14 1017.1
20260905211013 28 241 1.6 8.0 0.00 0.00 0.00 15 1017.2
20260905210513 28 259 3.2 8.0 0.00 0.00 0.00 16 1017.4
20260905210013 28 196 3.2 17.7 0.00 0.00 0.00 14 1017.6
20260905205513 28 263 1.6 16.1 0.00 0.00 0.00 14 1017.6
20260905205013 28 261 1.6 12.9 0.00 0.00 0.00 15 1017.5
20260905204513 28 220 3.2 12.9 0.00 0.00 0.00 15 1017.7
20260905204013 28 213 3.2 12.9 0.00 0.00 0.00 15 1017.7
20260905203513 28 202 3.2 8.0 0.00 0.00 0.00 16 1017.8
20260905203013 28 172 4.8 11.3 0.00 0.00 0.00 15 1017.6
20260905202513 28 242 4.8 9.7 0.00 0.00 0.00 15 1017.8
20260905202013 28 209 4.8 11.3 0.00 0.00 0.00 16 1017.9
20260905201513 28 273 3.2 16.1 0.00 0.00 0.00 17 1017.8
20260905201013 27 261 1.6 16.1 0.00 0.00 0.00 17 1017.8
20260905200513 27 199 3.2 11.3 0.00 0.00 0.00 18 1017.7
20260905200013 27 173 4.8 17.7 0.00 0.00 0.00 21 1017.9
20260905195513 27 159 3.2 12.9 0.00 0.00 0.00 22 1017.9
20260905195013 27 222 0.0 6.4 0.00 0.00 0.00 20 1018.0
20260905194513 27 160 3.2 8.0 0.00 0.00 0.00 21 1018.1
20260905194013 27 182 6.4 25.7 0.00 0.00 0.00 23 1018.1
20260905193513 27 173 4.8 16.1 0.00 0.00 0.00 22 1018.0
20260905193013 27 209 6.4 14.5 0.00 0.00 0.00 23 1018.0
20260905192513 27 238 6.4 17.7 0.00 0.00 0.00 21 1018.1
20260905192013 27 177 4.8 14.5 0.00 0.00 0.00 22 1018.2
20260905191513 27 194 4.8 12.9 0.00 0.00 0.00 22 1018.3
20260905191013 27 205 4.8 14.5 0.00 0.00 0.00 21 1018.3
20260905190513 27 228 3.2 8.0 0.00 0.00 0.00 22 1018.5
20260905190013 27 224 4.8 9.7 0.00 0.00 0.00 19 1018.5
20260905185513 27 138 4.8 12.9 0.00 0.00 0.00 17 1018.8
20260905185013 27 164 4.8 14.5 0.00 0.00 0.00 17 1018.5
20260905184513 27 196 3.2 14.5 0.00 0.00 0.00 18 1018.9
20260905184013 27 267 1.6 11.3 0.00 0.00 0.00 18 1018.9
20260905183513 27 265 3.2 9.7 0.00 0.00 0.00 16 1019.1
20260905183013 27 265 3.2 11.3 0.00 0.00 0.00 17 1018.9
20260905182513 27 263 1.6 8.0 0.00 0.00 0.00 17 1019.0
20260905182013 26 243 3.2 11.3 0.00 0.00 0.00 17 1019.0